[[{"header":{"parameterUnit":"m.s-1","parameterCategory":2,"la1":30.2992,"la2":30.254,"lo1":-89.0895,"lo2":-89.0443,"dy":0.0025,"dx":0.0025,"nx":19,"ny":19,"refTime":"2026-03-07T09:00:00:Z","depth":"0","parameterNumber":2,"parameterNumberName":"U-component_of_CURRENTS"},"data":[0,0,0,0.2984,0.2981,0.2656,0.2653,0.2399,0.2399,0,0,0,0,0,0,0,0,0,0,0,0.3073,0.3073,0.2984,0.298,0.2656,0.2653,0.2399,0.2399,0,0,0,0,0,0,0,0,0,0,0,0.3073,0.3073,0.3073,0.298,0.2657,0.2653,0.24,0.2575,0,0,0,0,0,0,0,0,0,0,0.2857,0.294,0.3073,0.3073,0.2979,0.2657,0.2652,0.258,0.2564,0.2632,0,0.2644,0,0.2589,0.2397,0.2397,0,0,0,0.2856,0.2952,0.2919,0.3074,0.2978,0.2658,0.2767,0.2569,0.2551,0.2612,0.264,0.263,0.2585,0.2397,0.2397,0.242,0.2421,0,0,0.2875,0.2946,0.2931,0.291,0.2982,0.2779,0.2759,0.2555,0.255,0.2639,0.2623,0.258,0.2397,0.2397,0.242,0.2421,0,0,0,0.301,0.2959,0.292,0.2922,0.289,0.2773,0.2749,0.2554,0.256,0.262,0.2577,0.2397,0.2396,0.242,0.242,0.2472,0,0,0,0.3014,0.3047,0.2931,0.2959,0.2896,0.2696,0.2755,0.257,0.2547,0.2579,0.2397,0.2396,0.2419,0.242,0.2469,0.2502,0,0,0,0.3072,0.3051,0.3051,0.2966,0.2889,0.2697,0.2678,0.2559,0.2529,0.2397,0.2396,0.2419,0.242,0.2467,0.2498,0.2522,0,0,0,0.3097,0.3138,0.3054,0.3076,0.2894,0.2751,0.2677,0.2523,0.241,0.2397,0.2419,0.242,0.2466,0.2495,0.2519,0.2507,0.2518,0,0,0.3166,0.3147,0.316,0.308,0.3035,0.2781,0.2661,0.2493,0.246,0.2476,0.2473,0.247,0.2498,0.2521,0.2572,0.258,0,0,0,0.3192,0.3209,0.3178,0.3133,0.2998,0.2812,0.2608,0.2546,0.2477,0.2428,0.2478,0.2495,0.2507,0.2495,0.2502,0.2459,0.2425,0.2425,0.2425,0.3343,0.3281,0.3268,0.3167,0.3065,0.2812,0.2679,0.2569,0.2524,0.2528,0.2542,0.2605,0.2594,0.2599,0.2555,0.2543,0.2543,0.2544,0.2544,0.3428,0.3399,0.3313,0.3279,0.3113,0.299,0.2784,0.2703,0.2639,0.2603,0.2612,0.2558,0.2609,0.256,0.2547,0.2547,0.2546,0.2546,0.2546,0.3474,0.3445,0.3433,0.3358,0.3255,0.3071,0.2929,0.2798,0.2739,0.271,0.2679,0.2677,0.2627,0.2708,0.2708,0.2709,0.2709,0.2709,0.2709,0.3508,0.3486,0.3478,0.3413,0.3359,0.3235,0.2998,0.2907,0.2803,0.2745,0.2745,0.2649,0.2655,0.2642,0.2713,0.2713,0.2712,0.2712,0.2711,0.3537,0.3532,0.3508,0.3475,0.3342,0.3103,0.2995,0.2796,0.2772,0.275,0.2722,0.2754,0.2735,0.2729,0.2717,0.2804,0.2804,0.2804,0.2804,0.3554,0.3552,0.3477,0.3394,0.3252,0.3015,0.2671,0.2584,0.2636,0.2684,0.2737,0.2689,0.2687,0.2662,0.2657,0.2642,0.2708,0.2708,0.2708,0.3572,0.3538,0.3451,0.3348,0.317,0.2832,0.2392,0.2258,0.2511,0.2699,0.2684,0.2688,0.2611,0.2611,0.2563,0.256,0.2531,0,0]},{"header":{"parameterUnit":"m.s-1","parameterCategory":2,"la1":30.2992,"la2":30.254,"lo1":-89.0895,"lo2":-89.0443,"dy":0.0025,"dx":0.0025,"nx":19,"ny":19,"refTime":"2026-03-07T09:00:00:Z","depth":"0","parameterNumber":3,"parameterNumberName":"V-component_of_CURRENTS"},"data":[0,0,0,0.0425,0.0427,0.0482,0.0482,0.0387,0.0386,0,0,0,0,0,0,0,0,0,0,0,0.0392,0.0392,0.0425,0.0428,0.0482,0.0482,0.0388,0.0386,0,0,0,0,0,0,0,0,0,0,0,0.0391,0.0392,0.0393,0.0428,0.0482,0.0482,0.0388,0.0381,0,0,0,0,0,0,0,0,0,0,0.0346,0.0335,0.0392,0.0393,0.0428,0.0482,0.0482,0.0383,0.0382,0.0324,0,0.0345,0,0.0377,0.0379,0.0378,0,0,0,0.0402,0.0336,0.0371,0.0393,0.0429,0.0482,0.045,0.0383,0.0382,0.0322,0.0344,0.0342,0.0376,0.0378,0.0377,0.0311,0.0311,0,0,0.0399,0.0374,0.0372,0.0371,0.0456,0.0449,0.0452,0.0384,0.0372,0.0344,0.0341,0.0374,0.0377,0.0376,0.0311,0.0311,0,0,0,0.0408,0.0372,0.0411,0.0373,0.0404,0.0451,0.0455,0.0374,0.0394,0.0341,0.0373,0.0376,0.0375,0.031,0.0311,0.0401,0,0,0,0.0405,0.0379,0.041,0.0391,0.0407,0.041,0.0446,0.0398,0.0393,0.0374,0.0376,0.0374,0.031,0.0311,0.0398,0.0457,0,0,0,0.0387,0.0377,0.0393,0.039,0.0431,0.0414,0.0428,0.0398,0.0413,0.0378,0.0374,0.031,0.031,0.0395,0.0452,0.0478,0,0,0,0.0345,0.0378,0.0392,0.0441,0.043,0.0484,0.0429,0.0438,0.0416,0.0376,0.031,0.0311,0.0395,0.0448,0.0475,0.057,0.0591,0,0,0.0369,0.0379,0.0415,0.0431,0.0524,0.0474,0.0509,0.0451,0.0395,0.0316,0.0316,0.0399,0.0451,0.0477,0.0588,0.061,0,0,0,0.0413,0.0439,0.0468,0.0527,0.0561,0.0581,0.0525,0.0483,0.043,0.039,0.038,0.041,0.0424,0.0474,0.049,0.0436,0.0312,0.0312,0.0312,0.0389,0.0457,0.0529,0.0606,0.0643,0.0631,0.0615,0.0541,0.047,0.0458,0.0469,0.0534,0.0587,0.0601,0.0543,0.0441,0.0441,0.0441,0.0442,0.0441,0.0504,0.0585,0.0678,0.0723,0.0747,0.0704,0.0649,0.0591,0.053,0.0537,0.0549,0.0625,0.0556,0.0447,0.0446,0.0445,0.0445,0.0444,0.0432,0.0482,0.0539,0.0687,0.0798,0.0835,0.0907,0.0812,0.0699,0.0696,0.0717,0.0716,0.0668,0.0691,0.0691,0.0692,0.0692,0.0692,0.0693,0.0405,0.0477,0.057,0.0718,0.0842,0.0988,0.1012,0.0999,0.092,0.0835,0.0834,0.0691,0.0609,0.0613,0.0698,0.0697,0.0697,0.0696,0.0696,0.0445,0.0459,0.0606,0.072,0.101,0.1204,0.122,0.1225,0.1151,0.1126,0.0914,0.089,0.0869,0.0855,0.0864,0.1009,0.1009,0.1009,0.1009,0.0457,0.0478,0.0695,0.0899,0.1149,0.1322,0.1464,0.1447,0.1236,0.1127,0.1009,0.0967,0.0957,0.0935,0.092,0.0926,0.1084,0.1084,0.1083,0.0505,0.0566,0.0739,0.0944,0.1251,0.1455,0.1589,0.1629,0.1335,0.1074,0.0915,0.0912,0.0831,0.0819,0.0765,0.0747,0.075,0,0]}],[{"header":{"parameterUnit":"m.s-1","parameterCategory":2,"la1":30.2992,"la2":30.254,"lo1":-89.0895,"lo2":-89.0443,"dy":0.0025,"dx":0.0025,"nx":19,"ny":19,"refTime":"2026-03-07T09:00:00:Z","depth":"2","parameterNumber":2,"parameterNumberName":"U-component_of_CURRENTS"},"data":[0,0,0,0.1849,0.1852,0.1966,0.1966,0.2053,0.2053,0,0,0,0,0,0,0,0,0,0,0,0.1818,0.1819,0.1849,0.1852,0.1966,0.1966,0.2053,0.2053,0,0,0,0,0,0,0,0,0,0,0,0.1817,0.1818,0.182,0.1852,0.1966,0.1966,0.2053,0.1983,0,0,0,0,0,0,0,0,0,0,0.188,0.1872,0.1818,0.182,0.1853,0.1965,0.1966,0.198,0.1987,0.1982,0,0.2007,0,0.2025,0.2057,0.2057,0,0,0,0.1858,0.1866,0.188,0.182,0.1854,0.1965,0.1916,0.1985,0.1992,0.1991,0.2008,0.2012,0.2026,0.2058,0.2058,0.2143,0.2144,0,0,0.1852,0.1853,0.1875,0.1885,0.1891,0.1912,0.192,0.199,0.201,0.2008,0.2014,0.2028,0.2058,0.2058,0.2143,0.2143,0,0,0,0.183,0.1849,0.1863,0.1881,0.1903,0.1916,0.1924,0.2007,0.2008,0.2015,0.2029,0.2058,0.2059,0.2142,0.2143,0.22,0,0,0,0.1826,0.1835,0.186,0.1864,0.1902,0.1968,0.1939,0.2003,0.2012,0.2028,0.2058,0.206,0.2142,0.2143,0.2197,0.2215,0,0,0,0.1811,0.1834,0.1845,0.1863,0.1907,0.1967,0.1974,0.2006,0.2019,0.2057,0.206,0.2141,0.2142,0.2195,0.2211,0.225,0,0,0,0.1809,0.1818,0.1846,0.1873,0.1906,0.1974,0.1974,0.2034,0.2071,0.2059,0.2142,0.2143,0.2194,0.2209,0.2247,0.2198,0.2206,0,0,0.1805,0.1818,0.1832,0.1858,0.1911,0.1958,0.2043,0.2086,0.2085,0.2114,0.2117,0.2198,0.2211,0.2249,0.2267,0.2273,0,0,0,0.182,0.1838,0.1861,0.1906,0.1956,0.2042,0.2094,0.2124,0.2175,0.2111,0.2207,0.2213,0.2235,0.22,0.2205,0.2149,0.2148,0.2148,0.2148,0.1824,0.1847,0.188,0.1932,0.1995,0.2104,0.2173,0.2222,0.2216,0.2249,0.2266,0.2342,0.2306,0.2309,0.2277,0.2277,0.2278,0.2278,0.2278,0.1813,0.1819,0.1892,0.1933,0.2031,0.2119,0.2244,0.2279,0.2362,0.2332,0.2351,0.227,0.2318,0.2283,0.2282,0.2281,0.2281,0.228,0.228,0.1801,0.1795,0.1843,0.1905,0.2011,0.2133,0.2243,0.2343,0.2396,0.244,0.2394,0.2392,0.237,0.2451,0.2452,0.2452,0.2452,0.2452,0.2453,0.1736,0.1774,0.1801,0.1877,0.194,0.2061,0.2251,0.2331,0.2427,0.245,0.245,0.24,0.2395,0.238,0.2457,0.2456,0.2455,0.2455,0.2455,0.1694,0.1706,0.1741,0.1791,0.1898,0.1948,0.2146,0.2302,0.2406,0.2429,0.2456,0.2454,0.2429,0.2423,0.2409,0.2489,0.2489,0.2489,0.2489,0.166,0.1661,0.1697,0.1738,0.1804,0.1894,0.1963,0.2083,0.2251,0.2292,0.23,0.2235,0.2239,0.2199,0.2198,0.2177,0.2197,0.2196,0.2195,0.1644,0.1653,0.167,0.1686,0.1746,0.1805,0.1807,0.1788,0.1933,0.2178,0.2193,0.248,0.2405,0.2403,0.2354,0.2348,0.232,0,0]},{"header":{"parameterUnit":"m.s-1","parameterCategory":2,"la1":30.2992,"la2":30.254,"lo1":-89.0895,"lo2":-89.0443,"dy":0.0025,"dx":0.0025,"nx":19,"ny":19,"refTime":"2026-03-07T09:00:00:Z","depth":"2","parameterNumber":3,"parameterNumberName":"V-component_of_CURRENTS"},"data":[0,0,0,0.0325,0.0325,0.0337,0.0337,0.0276,0.0275,0,0,0,0,0,0,0,0,0,0,0,0.0321,0.0321,0.0325,0.0325,0.0337,0.0337,0.0276,0.0275,0,0,0,0,0,0,0,0,0,0,0,0.0321,0.0321,0.0321,0.0325,0.0337,0.0337,0.0277,0.0286,0,0,0,0,0,0,0,0,0,0,0.0284,0.0288,0.0321,0.0321,0.0326,0.0337,0.0337,0.0288,0.0286,0.0249,0,0.0255,0,0.0262,0.027,0.0269,0,0,0,0.0324,0.029,0.0296,0.0321,0.0326,0.0337,0.0332,0.0287,0.0285,0.0246,0.0254,0.0252,0.0261,0.0269,0.0269,0.0229,0.0229,0,0,0.0324,0.0317,0.0298,0.0295,0.0331,0.0331,0.0332,0.0287,0.0281,0.0254,0.0251,0.026,0.0269,0.0268,0.0229,0.0229,0,0,0,0.0322,0.0316,0.0325,0.0297,0.0304,0.0332,0.0332,0.0283,0.0287,0.0251,0.0259,0.0268,0.0267,0.0229,0.0229,0.0312,0,0,0,0.0322,0.0316,0.0325,0.032,0.0306,0.0303,0.033,0.0291,0.0286,0.0259,0.0268,0.0266,0.0229,0.0229,0.0309,0.0359,0,0,0,0.032,0.0315,0.0319,0.032,0.0327,0.0305,0.0307,0.029,0.029,0.0269,0.0266,0.0228,0.0229,0.0307,0.0354,0.0376,0,0,0,0.031,0.0339,0.0319,0.0353,0.0327,0.0355,0.0307,0.0315,0.0304,0.0268,0.0229,0.0229,0.0306,0.0351,0.0374,0.0423,0.044,0,0,0.0349,0.0343,0.0367,0.035,0.0394,0.0353,0.0384,0.0345,0.0294,0.0237,0.0237,0.031,0.0353,0.0376,0.0451,0.0468,0,0,0,0.0382,0.04,0.0409,0.0427,0.0428,0.0435,0.0395,0.0369,0.0333,0.029,0.0297,0.0321,0.0333,0.0356,0.0369,0.0231,0.0231,0.0231,0.0231,0.0425,0.0439,0.0486,0.0502,0.0509,0.0486,0.0482,0.0432,0.0374,0.0369,0.0379,0.0441,0.0466,0.0477,0.0359,0.0359,0.0359,0.0359,0.036,0.0507,0.0551,0.0551,0.0601,0.0591,0.0604,0.056,0.0523,0.0494,0.0439,0.0446,0.043,0.0496,0.0366,0.0365,0.0364,0.0363,0.0363,0.0362,0.0558,0.0586,0.0604,0.0666,0.0703,0.0687,0.0719,0.0657,0.0578,0.0588,0.0581,0.0579,0.0497,0.0582,0.0583,0.0583,0.0583,0.0584,0.0584,0.061,0.0634,0.0686,0.0742,0.079,0.0831,0.0813,0.0799,0.0745,0.0682,0.0681,0.0515,0.0508,0.0508,0.0589,0.0588,0.0587,0.0587,0.0586,0.0692,0.0691,0.0774,0.0823,0.0932,0.1009,0.0987,0.0967,0.0921,0.0907,0.0721,0.0716,0.0692,0.068,0.0684,0.0805,0.0805,0.0805,0.0805,0.074,0.0748,0.0855,0.0944,0.1043,0.1094,0.1166,0.1114,0.0985,0.088,0.0876,0.084,0.083,0.0809,0.0795,0.0798,0.095,0.095,0.095,0.079,0.0816,0.0896,0.0977,0.11,0.1177,0.1242,0.1193,0.0998,0.0953,0.0872,0.082,0.0756,0.0745,0.0698,0.0681,0.068,0,0]}],[{"header":{"parameterUnit":"m.s-1","parameterCategory":2,"la1":30.2992,"la2":30.254,"lo1":-89.0895,"lo2":-89.0443,"dy":0.0025,"dx":0.0025,"nx":19,"ny":19,"refTime":"2026-03-07T09:00:00:Z","depth":"4","parameterNumber":2,"parameterNumberName":"U-component_of_CURRENTS"},"data":[0,0,0,0.1192,0.1196,0.1423,0.1425,0.159,0.159,0,0,0,0,0,0,0,0,0,0,0,0.1116,0.1117,0.1191,0.1196,0.1423,0.1425,0.1589,0.159,0,0,0,0,0,0,0,0,0,0,0,0.1115,0.1116,0.1118,0.1197,0.1423,0.1425,0.1589,0.1454,0,0,0,0,0,0,0,0,0,0,0.1252,0.1201,0.1116,0.1118,0.1198,0.1423,0.1425,0.145,0.1463,0.1443,0,0.1473,0,0.1521,0.1596,0.1597,0,0,0,0.122,0.119,0.1236,0.1118,0.12,0.1422,0.1327,0.1458,0.1473,0.146,0.1476,0.1483,0.1524,0.1597,0.1597,0.1712,0.1713,0,0,0.1207,0.1173,0.1226,0.1245,0.1249,0.132,0.1334,0.1469,0.1484,0.1476,0.1488,0.1527,0.1598,0.1598,0.1712,0.1712,0,0,0,0.1155,0.1164,0.1211,0.1237,0.1281,0.1326,0.1342,0.148,0.1491,0.149,0.1528,0.1598,0.1599,0.1711,0.1712,0.1776,0,0,0,0.1149,0.1132,0.1205,0.1189,0.1279,0.1402,0.135,0.1483,0.15,0.1528,0.1598,0.16,0.171,0.1711,0.1773,0.1783,0,0,0,0.1107,0.1128,0.1148,0.1186,0.1273,0.1402,0.1425,0.1489,0.1521,0.1597,0.16,0.171,0.1711,0.177,0.1779,0.1819,0,0,0,0.1073,0.1101,0.1148,0.1197,0.127,0.1402,0.1425,0.1543,0.1613,0.1599,0.171,0.1712,0.1769,0.1776,0.1816,0.1576,0,0,0,0.1082,0.1101,0.113,0.1177,0.1275,0.1373,0.1506,0.1606,0.1621,0.1659,0.1664,0.1774,0.1779,0.1818,0.1659,0,0,0,0,0.1116,0.1135,0.1175,0.1247,0.1349,0.1478,0.1591,0.1643,0.1737,0.1665,0.1784,0.1785,0.1808,0.166,0.1718,0.1718,0.1718,0.1718,0.1718,0.108,0.1138,0.1199,0.1292,0.1387,0.1565,0.167,0.1757,0.1773,0.1826,0.1846,0.1928,0.1776,0.1864,0.1864,0.1864,0.1865,0.1865,0.1865,0.108,0.1108,0.121,0.1289,0.1429,0.1557,0.1744,0.1809,0.1932,0.1915,0.1935,0.1748,0.1872,0.187,0.1869,0.1869,0.1868,0.1868,0.1867,0.1036,0.1058,0.1124,0.1245,0.1393,0.157,0.1725,0.1873,0.1961,0.202,0.1863,0.197,0.1954,0.2042,0.2043,0.2043,0.2043,0.2043,0.2043,0.0954,0.1022,0.1073,0.1206,0.1297,0.1465,0.173,0.1826,0.1963,0.1899,0.2043,0.1987,0.1982,0.1964,0.2047,0.2046,0.2046,0.2046,0.2045,0.0892,0.0927,0.099,0.1064,0.1247,0.1355,0.1609,0.1743,0.1825,0.181,0.1831,0.1841,0.1791,0.179,0.1764,0.1791,0.1788,0.1785,0,0.0834,0.0859,0.0932,0.1016,0.1126,0.1295,0.1381,0.1521,0.1636,0.1576,0.1816,0.1835,0.1841,0.1781,0.1776,0.174,0,0,0,0.0797,0.0825,0.0857,0.0949,0.1064,0.1211,0.1401,0.1403,0.1604,0.1614,0.1715,0.1733,0.1919,0.2059,0.2005,0.1998,0.1967,0,0]},{"header":{"parameterUnit":"m.s-1","parameterCategory":2,"la1":30.2992,"la2":30.254,"lo1":-89.0895,"lo2":-89.0443,"dy":0.0025,"dx":0.0025,"nx":19,"ny":19,"refTime":"2026-03-07T09:00:00:Z","depth":"4","parameterNumber":3,"parameterNumberName":"V-component_of_CURRENTS"},"data":[0,0,0,0.03,0.03,0.0304,0.0304,0.0259,0.0258,0,0,0,0,0,0,0,0,0,0,0,0.0301,0.0301,0.03,0.03,0.0304,0.0304,0.0259,0.0258,0,0,0,0,0,0,0,0,0,0,0,0.0301,0.0301,0.0301,0.03,0.0304,0.0304,0.0259,0.0268,0,0,0,0,0,0,0,0,0,0,0.027,0.028,0.0301,0.0301,0.03,0.0304,0.0304,0.0269,0.0268,0.0242,0,0.0247,0,0.025,0.0254,0.0254,0,0,0,0.0299,0.0281,0.0281,0.0301,0.03,0.0304,0.0302,0.0269,0.0267,0.024,0.0247,0.0245,0.0249,0.0254,0.0253,0.0234,0.0234,0,0,0.0299,0.03,0.0282,0.028,0.0305,0.0302,0.0302,0.0268,0.0267,0.0247,0.0245,0.0248,0.0253,0.0253,0.0234,0.0234,0,0,0,0.0299,0.03,0.0302,0.0282,0.0285,0.0302,0.0302,0.0269,0.0269,0.0244,0.0248,0.0253,0.0252,0.0234,0.0234,0.03,0,0,0,0.0299,0.03,0.0302,0.0302,0.0286,0.0284,0.0304,0.0272,0.0268,0.0248,0.0253,0.0252,0.0233,0.0234,0.0298,0.0337,0,0,0,0.03,0.03,0.0302,0.0303,0.0305,0.0285,0.0284,0.0272,0.027,0.0254,0.0251,0.0233,0.0234,0.0296,0.0333,0.0346,0,0,0,0.0299,0.0319,0.0302,0.0328,0.0305,0.0323,0.0284,0.0291,0.0283,0.0253,0.0233,0.0234,0.0295,0.033,0.0344,0.0338,0,0,0,0.0328,0.0323,0.034,0.0325,0.0357,0.0322,0.0347,0.0318,0.0281,0.024,0.024,0.0299,0.0332,0.0346,0.0373,0,0,0,0,0.0352,0.0366,0.0372,0.0386,0.0384,0.039,0.0358,0.0339,0.0316,0.0278,0.0292,0.0311,0.0318,0.0307,0.0237,0.0237,0.0237,0.0237,0.0237,0.0393,0.04,0.0435,0.0445,0.0451,0.0433,0.0431,0.0396,0.0352,0.0352,0.036,0.0411,0.0402,0.0348,0.0348,0.0349,0.0349,0.0349,0.0349,0.0452,0.0478,0.0487,0.0526,0.0522,0.0536,0.0499,0.0472,0.0453,0.0413,0.0415,0.0372,0.0356,0.0354,0.0353,0.0353,0.0352,0.0352,0.0351,0.0484,0.0499,0.0526,0.0579,0.0616,0.0606,0.0624,0.0581,0.0521,0.0529,0.0492,0.0451,0.0451,0.0522,0.0522,0.0523,0.0523,0.0523,0.0523,0.0505,0.0532,0.0583,0.0637,0.0681,0.0712,0.0699,0.0679,0.0619,0.0573,0.0547,0.0469,0.0463,0.046,0.0527,0.0526,0.0526,0.0526,0.0525,0.0542,0.0556,0.0629,0.068,0.077,0.079,0.0789,0.0727,0.0708,0.0661,0.058,0.0577,0.0549,0.0541,0.0539,0.0633,0.0633,0.0633,0,0.0561,0.0575,0.0669,0.0746,0.0811,0.0831,0.0812,0.0778,0.0692,0.0678,0.0694,0.0605,0.0601,0.057,0.0564,0.0562,0,0,0,0.0583,0.0611,0.0674,0.0751,0.0828,0.0808,0.08,0.0769,0.0712,0.0685,0.0638,0.0637,0.0602,0.0538,0.0486,0.048,0.0471,0,0]}]]